Regional Weather Roundup
Issued by NWS Bismarck, ND

Home | Current Version | Previous Version | Text Only | Print | Product List | Glossary On
Versions: 1 2 3 4 5 6 7 8 9 10 11 12 13 14 15 16 17 18 19 20 21 22 23 24 25 26 27 28 29 30 31 32 33 34 35 36 37 38 39 40 41 42 43 44 45 46 47 48 49 50
000
ASUS43 KBIS 190802
RWRBIS

NWR BROADCAST TEXT
NATIONAL WEATHER SERVICE BISMARCK ND
300 AM CDT TUE SEP 19 2017

NOTE: "FAIR" INDICATES FEW OR NO CLOUDS BELOW 12,000 FEET WITH NO
SIGNIFICANT WEATHER AND/OR OBSTRUCTIONS TO VISIBILITY.


CITY           SKY/WX    TMP DP  RH WIND       PRES   REMARKS
WILLISTON      MOCLDY    62  42  47 SE14G20   29.55F
MINOT          CLEAR     50  48  93 E7        29.68F
MINOT AFB      PTCLDY    50  48  94 E9        29.67F
BISMARCK       CLOUDY    53  49  86 NE8       29.70F
DICKINSON      CLOUDY    61  47  59 SE20G26   29.56F
GARRISON         N/A     55  48  77 SE9       29.67F
HETTINGER ARPT CLOUDY    62  49  62 SE20G25   29.59F
JAMESTOWN      FOG       54  53  97 SE5       29.76S VSB 1/4
CARRINGTON     FOG       54  54 100 SE9       29.78R VSB 1/4
HAZEN          FAIR      57  45  62 SE17G24   29.66F
LINTON         FAIR      59  50  72 SE10      29.70F
MANDAN         FAIR      54  46  76 E10       29.70F
RUGBY          FAIR      52  52 100 E10       29.73S
STANLEY        FAIR      54  50  87 E8        29.67F
TIOGA          FAIR      57  46  67 SE18G24   29.61F
WATFORD CITY   FAIR      59  43  55 SE25G36   29.53F
$$

CITY           SKY/WX    TMP DP  RH WIND       PRES   REMARKS
GRAND FORKS    CLOUDY    59  59 100 SE10      29.80F FOG
GRAND FORKS AF CLOUDY    59  57  94 SE8       29.81F
DEVILS LAKE    CLOUDY    57  57 100 SE12      29.77S FOG
FARGO          CLOUDY    61  59  93 SE14G24   29.81F
CANDO          FOG       55  55 100 SE9       29.78F VSB 1/4
CAVALIER       CLOUDY    55  55 100 VRB5      29.80F FOG
GRAFTON        CLOUDY    57  57 100 SE10      29.83S
GWINNER        FOG       61  61 100 SE12      29.78F VSB 1
LANGDON        CLOUDY    57  57 100 SE8       29.80F FOG
ROLLA          FOG       48  48 100 E3        29.78S VSB<1/4
WALHALLA       FAIR     N/A N/A N/A SE3       29.80S
$$

CITY           SKY/WX    TMP DP  RH WIND       PRES   REMARKS
ABERDEEN       CLEAR     61  61 100 SE10      29.75F
MOBRIDGE       CLOUDY    64  58  80 SE12      29.66F
BUFFALO          N/A     63  46  54 E10       29.49F
GLASGOW        CLOUDY    58  48  69 NW7       29.53R
SIDNEY         PTCLDY    62  45  53 SE7       29.50F
WOLF POINT     CLOUDY    58  45  62 E8        29.50F
GLENDIVE       CLOUDY    64  44  48 S5        29.49F
MILES CITY     CLOUDY    59  46  62 W9        29.52R
BAKER          CLOUDY    56  44  64 SE14      29.51F
$$

CITY           SKY/WX    TMP DP  RH WIND       PRES   REMARKS
BILLINGS       CLOUDY    53  43  68 W7        29.62F
GREAT FALLS    CLOUDY    45  34  65 SW7       29.63S
$$





USA.gov is the U.S. government's official web portal to all federal, state and local government web resources and services.